Location: *
(50.9167°S, 179.4000°W)
Time: 11:54:20
(UTC+00:00)

ATLAS 2AS CENTAUR R/B - Pass Details

Date: 19 June 2024
Orbit: 1019 x 1192 km, 63.7° (Epoch: 21 July)

Event Time Altitude Azimuth Distance (km) Brightness Sun altitude
Exits shadow 16:37:06 30° 188° (S) 1,926 3.9 -30.8°
Maximum altitude 16:37:29 30° 182° (S) 1,923 3.9 -30.7°
Drops below altitude 10° 16:43:48 10° 123° (ESE) 3,075 5.7 -29.7°
Sets 16:47:00 0° 112° (ESE) 4,059 6.7 -29.2°
